Satellite-Ground Cal/Val Region Overpasses Predictions

Prediction of Satellite NPP Overpassing Cal/Val Region: PacNW

Region Location: (Latitude: 10.00, Longitude: 139.50) to (Latitude: 22.70, Longitude: 165.60).

Table of predicted overpasses for the next 14.0 days since TLE Epoch: 1/31/2014
Interval Starting Time Starting Location Ending Time Ending Location
1 02/01/2014 03:33:09 ( 10.05, 147.13) 02/01/2014 03:36:44 ( 22.67, 144.12)
2 02/01/2014 16:05:02 ( 22.69, 144.41) 02/01/2014 16:08:38 ( 10.01, 141.38)
3 02/02/2014 03:14:09 ( 10.06, 151.89) 02/02/2014 03:17:44 ( 22.68, 148.87)
4 02/02/2014 15:46:02 ( 22.68, 149.16) 02/02/2014 15:49:38 ( 10.00, 146.13)
5 02/03/2014 02:55:07 ( 10.01, 156.66) 02/03/2014 02:58:43 ( 22.68, 153.63)
6 02/03/2014 15:27:01 ( 22.67, 153.92) 02/03/2014 15:30:36 ( 10.05, 150.90)
7 02/04/2014 02:36:07 ( 10.01, 161.41) 02/04/2014 02:39:43 ( 22.69, 158.38)
8 02/04/2014 15:08:01 ( 22.67, 158.67) 02/04/2014 15:11:36 ( 10.05, 155.66)
9 02/05/2014 02:17:48 ( 12.49, 165.60) 02/05/2014 02:20:41 ( 22.64, 163.15)
10 02/05/2014 03:58:36 ( 10.02, 140.79) 02/05/2014 04:00:10 ( 15.54, 139.51)
11 02/05/2014 14:49:00 ( 22.66, 163.43) 02/05/2014 14:52:35 ( 10.04, 160.41)
12 02/06/2014 03:39:36 ( 10.03, 145.55) 02/06/2014 03:43:11 ( 22.65, 142.54)
13 02/06/2014 14:33:04 ( 11.85, 165.59) 02/06/2014 14:33:35 ( 10.03, 165.17)
14 02/06/2014 16:11:30 ( 22.64, 142.81) 02/06/2014 16:15:05 ( 10.02, 139.80)
15 02/07/2014 03:20:35 ( 10.05, 150.30) 02/07/2014 03:24:10 ( 22.67, 147.29)
16 02/07/2014 15:52:28 ( 22.69, 147.58) 02/07/2014 15:56:04 ( 10.01, 144.55)
17 02/08/2014 03:01:35 ( 10.06, 155.06) 02/08/2014 03:05:10 ( 22.68, 152.05)
18 02/08/2014 15:33:28 ( 22.68, 152.33) 02/08/2014 15:37:03 ( 10.06, 149.32)
19 02/09/2014 02:42:33 ( 10.01, 159.83) 02/09/2014 02:46:09 ( 22.69, 156.80)
20 02/09/2014 15:14:27 ( 22.66, 157.09) 02/09/2014 15:18:02 ( 10.04, 154.07)
21 02/10/2014 02:23:33 ( 10.03, 164.58) 02/10/2014 02:27:08 ( 22.65, 161.57)
22 02/10/2014 14:55:27 ( 22.65, 161.84) 02/10/2014 14:59:02 ( 10.03, 158.83)
23
